Time,TemperatureF,DewpointF,PressureIn,WindDirection,WindDirectionDegrees,WindSpeedMPH,WindSpeedGustMPH,Humidity,HourlyPrecipIn,Conditions,Clouds,dailyrainin,SolarRadiationWatts/m^2,SoftwareType,DateUTC
2013-01-06 00:01:00,41.8,-99.9,-100.00,North,-999,-999.0,-999.0,99,-99.99,,,-99.99,0.00,,2013-01-06 00:01:00,
2013-01-06 00:06:00,41.9,-99.9,-100.00,North,-999,-999.0,-999.0,98,-99.99,,,-99.99,0.00,,2013-01-06 00:06:00,
2013-01-06 00:11:00,42.1,-99.9,-100.00,North,-999,-999.0,-999.0,99,-99.99,,,-99.99,0.00,,2013-01-06 00:11:00,
2013-01-06 00:16:00,41.8,-99.9,-100.00,North,-999,-999.0,-999.0,99,-99.99,,,-99.99,0.00,,2013-01-06 00:16:00,
2013-01-06 00:21:00,41.5,-99.9,-100.00,North,-999,-999.0,-999.0,99,-99.99,,,-99.99,0.00,,2013-01-06 00:21:00,
2013-01-06 00:26:00,41.0,-99.9,-100.00,North,-999,-999.0,-999.0,99,-99.99,,,-99.99,0.00,,2013-01-06 00:26:00,
2013-01-06 00:31:00,40.9,-99.9,-100.00,North,-999,-999.0,-999.0,100,-99.99,,,-99.99,0.00,,2013-01-06 00:31:00,
2013-01-06 00:36:00,40.8,-99.9,-100.00,North,-999,-999.0,-999.0,100,-99.99,,,-99.99,0.00,,2013-01-06 00:36:00,
2013-01-06 00:41:00,40.4,-99.9,-100.00,North,-999,-999.0,-999.0,99,-99.99,,,-99.99,0.00,,2013-01-06 00:41:00,
2013-01-06 00:46:00,39.9,-99.9,-100.00,North,-999,-999.0,-999.0,99,-99.99,,,-99.99,0.00,,2013-01-06 00:46:00,
2013-01-06 00:51:00,39.5,-99.9,-100.00,North,-999,-999.0,-999.0,99,-99.99,,,-99.99,0.00,,2013-01-06 00:51:00,
2013-01-06 00:56:00,39.7,-99.9,-100.00,North,-999,-999.0,-999.0,100,-99.99,,,-99.99,0.00,,2013-01-06 00:56:00,
2013-01-06 01:01:00,39.9,-99.9,-100.00,North,-999,-999.0,-999.0,101,-99.99,,,-99.99,0.00,,2013-01-06 01:01:00,
2013-01-06 01:06:00,39.8,-99.9,-100.00,North,-999,-999.0,-999.0,100,-99.99,,,-99.99,0.00,,2013-01-06 01:06:00,
2013-01-06 01:12:00,39.8,-99.9,-100.00,North,-999,-999.0,-999.0,101,-99.99,,,-99.99,0.00,,2013-01-06 01:12:00,
2013-01-06 01:17:00,39.7,-99.9,-100.00,North,-999,-999.0,-999.0,100,-99.99,,,-99.99,0.00,,2013-01-06 01:17:00,
2013-01-06 01:22:00,39.3,-99.9,-100.00,North,-999,-999.0,-999.0,100,-99.99,,,-99.99,0.00,,2013-01-06 01:22:00,
2013-01-06 01:27:00,39.2,-99.9,-100.00,North,-999,-999.0,-999.0,100,-99.99,,,-99.99,0.00,,2013-01-06 01:27:00,
2013-01-06 01:32:00,39.7,-99.9,-100.00,North,-999,-999.0,-999.0,102,-99.99,,,-99.99,0.00,,2013-01-06 01:32:00,
2013-01-06 01:37:00,40.1,-99.9,-100.00,North,-999,-999.0,-999.0,102,-99.99,,,-99.99,0.00,,2013-01-06 01:37:00,
2013-01-06 01:42:00,41.2,-99.9,-100.00,North,-999,-999.0,-999.0,102,-99.99,,,-99.99,0.00,,2013-01-06 01:42:00,
2013-01-06 01:47:00,41.1,-99.9,-100.00,North,-999,-999.0,-999.0,101,-99.99,,,-99.99,0.00,,2013-01-06 01:47:00,
2013-01-06 01:52:00,40.8,-99.9,-100.00,North,-999,-999.0,-999.0,102,-99.99,,,-99.99,0.00,,2013-01-06 01:52:00,
2013-01-06 01:57:00,40.5,-99.9,-100.00,North,-999,-999.0,-999.0,102,-99.99,,,-99.99,0.00,,2013-01-06 01:57:00,
2013-01-06 02:02:00,40.4,-99.9,-100.00,North,-999,-999.0,-999.0,101,-99.99,,,-99.99,0.00,,2013-01-06 02:02:00,
2013-01-06 02:07:00,40.2,-99.9,-100.00,North,-999,-999.0,-999.0,101,-99.99,,,-99.99,0.00,,2013-01-06 02:07:00,
2013-01-06 02:12:00,39.9,-99.9,-100.00,North,-999,-999.0,-999.0,101,-99.99,,,-99.99,0.00,,2013-01-06 02:12:00,
2013-01-06 02:17:00,39.9,-99.9,-100.00,North,-999,-999.0,-999.0,102,-99.99,,,-99.99,0.00,,2013-01-06 02:17:00,
2013-01-06 02:22:00,39.7,-99.9,-100.00,North,-999,-999.0,-999.0,102,-99.99,,,-99.99,0.00,,2013-01-06 02:22:00,
2013-01-06 02:27:00,39.5,-99.9,-100.00,North,-999,-999.0,-999.0,101,-99.99,,,-99.99,0.00,,2013-01-06 02:27:00,
2013-01-06 02:32:00,39.7,-99.9,-100.00,North,-999,-999.0,-999.0,102,-99.99,,,-99.99,0.00,,2013-01-06 02:32:00,
2013-01-06 02:37:00,39.8,-99.9,-100.00,North,-999,-999.0,-999.0,102,-99.99,,,-99.99,0.00,,2013-01-06 02:37:00,
2013-01-06 02:42:00,39.8,-99.9,-100.00,North,-999,-999.0,-999.0,103,-99.99,,,-99.99,0.00,,2013-01-06 02:42:00,
2013-01-06 02:47:00,39.9,-99.9,-100.00,North,-999,-999.0,-999.0,103,-99.99,,,-99.99,1.30,,2013-01-06 02:47:00,
2013-01-06 02:52:00,40.3,-99.9,-100.00,North,-999,-999.0,-999.0,102,-99.99,,,-99.99,0.00,,2013-01-06 02:52:00,
2013-01-06 02:57:00,40.5,-99.9,-100.00,North,-999,-999.0,-999.0,103,-99.99,,,-99.99,0.00,,2013-01-06 02:57:00,
2013-01-06 03:02:00,40.8,-99.9,-100.00,North,-999,-999.0,-999.0,104,-99.99,,,-99.99,0.00,,2013-01-06 03:02:00,
2013-01-06 03:07:00,41.1,-99.9,-100.00,North,-999,-999.0,-999.0,104,-99.99,,,-99.99,0.00,,2013-01-06 03:07:00,
2013-01-06 03:12:00,41.7,-99.9,-100.00,North,-999,-999.0,-999.0,105,-99.99,,,-99.99,0.00,,2013-01-06 03:12:00,
2013-01-06 03:17:00,41.9,-99.9,-100.00,North,-999,-999.0,-999.0,105,-99.99,,,-99.99,0.00,,2013-01-06 03:17:00,
2013-01-06 03:22:00,42.0,-99.9,-100.00,North,-999,-999.0,-999.0,104,-99.99,,,-99.99,0.00,,2013-01-06 03:22:00,
2013-01-06 03:27:00,42.0,-99.9,-100.00,North,-999,-999.0,-999.0,104,-99.99,,,-99.99,0.00,,2013-01-06 03:27:00,
2013-01-06 03:32:00,42.1,-99.9,-100.00,North,-999,-999.0,-999.0,104,-99.99,,,-99.99,0.00,,2013-01-06 03:32:00,
2013-01-06 03:37:00,41.9,-99.9,-100.00,North,-999,-999.0,-999.0,103,-99.99,,,-99.99,0.00,,2013-01-06 03:37:00,
2013-01-06 03:42:00,41.9,-99.9,-100.00,North,-999,-999.0,-999.0,103,-99.99,,,-99.99,0.00,,2013-01-06 03:42:00,
2013-01-06 03:47:00,42.3,-99.9,-100.00,North,-999,-999.0,-999.0,104,-99.99,,,-99.99,0.00,,2013-01-06 03:47:00,
2013-01-06 03:52:00,42.6,-99.9,-100.00,North,-999,-999.0,-999.0,104,-99.99,,,-99.99,0.00,,2013-01-06 03:52:00,
2013-01-06 03:57:00,42.7,-99.9,-100.00,North,-999,-999.0,-999.0,104,-99.99,,,-99.99,0.00,,2013-01-06 03:57:00,
2013-01-06 04:02:00,42.6,-99.9,-100.00,North,-999,-999.0,-999.0,104,-99.99,,,-99.99,0.00,,2013-01-06 04:02:00,
2013-01-06 04:07:00,42.7,-99.9,-100.00,North,-999,-999.0,-999.0,104,-99.99,,,-99.99,0.00,,2013-01-06 04:07:00,
2013-01-06 04:12:00,42.9,-99.9,-100.00,North,-999,-999.0,-999.0,103,-99.99,,,-99.99,0.00,,2013-01-06 04:12:00,
2013-01-06 04:17:00,43.0,-99.9,-100.00,North,-999,-999.0,-999.0,104,-99.99,,,-99.99,0.00,,2013-01-06 04:17:00,
2013-01-06 04:22:00,43.1,-99.9,-100.00,North,-999,-999.0,-999.0,105,-99.99,,,-99.99,0.00,,2013-01-06 04:22:00,
2013-01-06 04:27:00,43.1,-99.9,-100.00,North,-999,-999.0,-999.0,104,-99.99,,,-99.99,0.00,,2013-01-06 04:27:00,
2013-01-06 04:32:00,43.0,-99.9,-100.00,North,-999,-999.0,-999.0,104,-99.99,,,-99.99,0.00,,2013-01-06 04:32:00,
2013-01-06 04:37:00,43.0,-99.9,-100.00,North,-999,-999.0,-999.0,104,-99.99,,,-99.99,0.00,,2013-01-06 04:37:00,
2013-01-06 04:42:00,42.9,-99.9,-100.00,North,-999,-999.0,-999.0,104,-99.99,,,-99.99,0.00,,2013-01-06 04:42:00,
2013-01-06 04:47:00,42.7,-99.9,-100.00,North,-999,-999.0,-999.0,103,-99.99,,,-99.99,0.00,,2013-01-06 04:47:00,
2013-01-06 04:52:00,42.3,-99.9,-100.00,North,-999,-999.0,-999.0,101,-99.99,,,-99.99,0.00,,2013-01-06 04:52:00,
2013-01-06 04:57:00,42.0,-99.9,-100.00,North,-999,-999.0,-999.0,102,-99.99,,,-99.99,0.00,,2013-01-06 04:57:00,
2013-01-06 05:00:00,42.0,-99.9,-100.00,North,-999,-999.0,-999.0,102,-99.99,,,-99.99,0.00,,2013-01-06 05:00:00,
2013-01-06 05:03:00,41.9,-99.9,-100.00,North,-999,-999.0,-999.0,102,-99.99,,,-99.99,0.00,,2013-01-06 05:03:00,
2013-01-06 05:05:00,41.7,-99.9,-100.00,North,-999,-999.0,-999.0,102,-99.99,,,-99.99,0.00,,2013-01-06 05:05:00,
2013-01-06 05:07:00,41.7,-99.9,-100.00,North,-999,-999.0,-999.0,102,-99.99,,,-99.99,0.00,,2013-01-06 05:07:00,
2013-01-06 05:08:00,41.7,-99.9,-100.00,North,-999,-999.0,-999.0,102,-99.99,,,-99.99,0.00,,2013-01-06 05:08:00,
2013-01-06 05:13:00,41.6,-99.9,-100.00,North,-999,-999.0,-999.0,103,-99.99,,,-99.99,0.00,,2013-01-06 05:13:00,
2013-01-06 05:18:00,41.8,-99.9,-100.00,North,-999,-999.0,-999.0,101,-99.99,,,-99.99,0.00,,2013-01-06 05:18:00,
2013-01-06 05:23:00,41.6,-99.9,-100.00,North,-999,-999.0,-999.0,103,-99.99,,,-99.99,0.00,,2013-01-06 05:23:00,
2013-01-06 05:28:00,41.3,-99.9,-100.00,North,-999,-999.0,-999.0,103,-99.99,,,-99.99,0.00,,2013-01-06 05:28:00,
2013-01-06 05:33:00,41.2,-99.9,-100.00,North,-999,-999.0,-999.0,103,-99.99,,,-99.99,0.00,,2013-01-06 05:33:00,
2013-01-06 05:38:00,41.0,-99.9,-100.00,North,-999,-999.0,-999.0,103,-99.99,,,-99.99,0.00,,2013-01-06 05:38:00,
2013-01-06 05:43:00,40.9,-99.9,-100.00,North,-999,-999.0,-999.0,103,-99.99,,,-99.99,0.00,,2013-01-06 05:43:00,
2013-01-06 05:48:00,40.7,-99.9,-100.00,North,-999,-999.0,-999.0,103,-99.99,,,-99.99,0.00,,2013-01-06 05:48:00,
2013-01-06 05:53:00,40.7,-99.9,-100.00,North,-999,-999.0,-999.0,103,-99.99,,,-99.99,0.00,,2013-01-06 05:53:00,
2013-01-06 05:58:00,40.7,-99.9,-100.00,North,-999,-999.0,-999.0,103,-99.99,,,-99.99,0.00,,2013-01-06 05:58:00,
2013-01-06 06:03:00,40.8,-99.9,-100.00,North,-999,-999.0,-999.0,103,-99.99,,,-99.99,0.00,,2013-01-06 06:03:00,
2013-01-06 06:08:00,40.7,-99.9,-100.00,North,-999,-999.0,-999.0,103,-99.99,,,-99.99,0.00,,2013-01-06 06:08:00,
2013-01-06 06:13:00,40.5,-99.9,-100.00,North,-999,-999.0,-999.0,103,-99.99,,,-99.99,0.00,,2013-01-06 06:13:00,
2013-01-06 06:18:00,40.5,-99.9,-100.00,North,-999,-999.0,-999.0,103,-99.99,,,-99.99,0.00,,2013-01-06 06:18:00,
2013-01-06 06:23:00,40.5,-99.9,-100.00,North,-999,-999.0,-999.0,101,-99.99,,,-99.99,0.00,,2013-01-06 06:23:00,
2013-01-06 06:28:00,40.4,-99.9,-100.00,North,-999,-999.0,-999.0,103,-99.99,,,-99.99,0.00,,2013-01-06 06:28:00,
2013-01-06 06:33:00,40.7,-99.9,-100.00,North,-999,-999.0,-999.0,103,-99.99,,,-99.99,0.00,,2013-01-06 06:33:00,
2013-01-06 06:38:00,40.7,-99.9,-100.00,North,-999,-999.0,-999.0,103,-99.99,,,-99.99,0.00,,2013-01-06 06:38:00,
2013-01-06 06:43:00,40.8,-99.9,-100.00,North,-999,-999.0,-999.0,104,-99.99,,,-99.99,0.00,,2013-01-06 06:43:00,
2013-01-06 06:48:00,40.8,-99.9,-100.00,North,-999,-999.0,-999.0,103,-99.99,,,-99.99,0.00,,2013-01-06 06:48:00,
2013-01-06 06:54:00,40.8,-99.9,-100.00,North,-999,-999.0,-999.0,103,-99.99,,,-99.99,0.00,,2013-01-06 06:54:00,
2013-01-06 06:59:00,40.9,-99.9,-100.00,North,-999,-999.0,-999.0,104,-99.99,,,-99.99,0.00,,2013-01-06 06:59:00,
2013-01-06 07:04:00,41.0,-99.9,-100.00,North,-999,-999.0,-999.0,104,-99.99,,,-99.99,0.00,,2013-01-06 07:04:00,
2013-01-06 07:09:00,41.1,-99.9,-100.00,North,-999,-999.0,-999.0,103,-99.99,,,-99.99,0.00,,2013-01-06 07:09:00,
2013-01-06 07:14:00,41.2,-99.9,-100.00,North,-999,-999.0,-999.0,104,-99.99,,,-99.99,0.00,,2013-01-06 07:14:00,
2013-01-06 07:19:00,41.3,-99.9,-100.00,North,-999,-999.0,-999.0,104,-99.99,,,-99.99,0.00,,2013-01-06 07:19:00,
2013-01-06 07:24:00,41.2,-99.9,-100.00,North,-999,-999.0,-999.0,104,-99.99,,,-99.99,0.00,,2013-01-06 07:24:00,
2013-01-06 07:29:00,41.1,-99.9,-100.00,North,-999,-999.0,-999.0,103,-99.99,,,-99.99,1.30,,2013-01-06 07:29:00,
2013-01-06 07:34:00,41.1,-99.9,-100.00,North,-999,-999.0,-999.0,103,-99.99,,,-99.99,0.00,,2013-01-06 07:34:00,
2013-01-06 07:39:00,41.0,-99.9,-100.00,North,-999,-999.0,-999.0,103,-99.99,,,-99.99,0.00,,2013-01-06 07:39:00,
2013-01-06 07:44:00,40.7,-99.9,-100.00,North,-999,-999.0,-999.0,103,-99.99,,,-99.99,0.00,,2013-01-06 07:44:00,
2013-01-06 07:49:00,40.7,-99.9,-100.00,North,-999,-999.0,-999.0,103,-99.99,,,-99.99,0.00,,2013-01-06 07:49:00,
2013-01-06 07:54:00,40.5,-99.9,-100.00,North,-999,-999.0,-999.0,103,-99.99,,,-99.99,0.00,,2013-01-06 07:54:00,
2013-01-06 07:59:00,40.3,-99.9,-100.00,North,-999,-999.0,-999.0,102,-99.99,,,-99.99,0.00,,2013-01-06 07:59:00,
2013-01-06 08:04:00,40.1,-99.9,-100.00,North,-999,-999.0,-999.0,102,-99.99,,,-99.99,0.00,,2013-01-06 08:04:00,
2013-01-06 08:09:00,39.9,-99.9,-100.00,North,-999,-999.0,-999.0,102,-99.99,,,-99.99,0.00,,2013-01-06 08:09:00,
2013-01-06 08:14:00,40.0,-99.9,-100.00,North,-999,-999.0,-999.0,103,-99.99,,,-99.99,0.00,,2013-01-06 08:14:00,
2013-01-06 08:19:00,39.8,-99.9,-100.00,North,-999,-999.0,-999.0,102,-99.99,,,-99.99,0.00,,2013-01-06 08:19:00,
2013-01-06 08:24:00,39.7,-99.9,-100.00,North,-999,-999.0,-999.0,103,-99.99,,,-99.99,2.17,,2013-01-06 08:24:00,
2013-01-06 08:29:00,39.5,-99.9,-100.00,North,-999,-999.0,-999.0,103,-99.99,,,-99.99,2.17,,2013-01-06 08:29:00,
2013-01-06 08:34:00,39.7,-99.9,-100.00,North,-999,-999.0,-999.0,103,-99.99,,,-99.99,1.30,,2013-01-06 08:34:00,
2013-01-06 08:39:00,39.9,-99.9,-100.00,North,-999,-999.0,-999.0,104,-99.99,,,-99.99,1.30,,2013-01-06 08:39:00,
2013-01-06 08:44:00,40.0,-99.9,-100.00,North,-999,-999.0,-999.0,103,-99.99,,,-99.99,2.17,,2013-01-06 08:44:00,
2013-01-06 08:49:00,40.1,-99.9,-100.00,North,-999,-999.0,-999.0,104,-99.99,,,-99.99,2.17,,2013-01-06 08:49:00,
2013-01-06 08:55:00,40.2,-99.9,-100.00,North,-999,-999.0,-999.0,104,-99.99,,,-99.99,3.92,,2013-01-06 08:55:00,
2013-01-06 09:00:00,40.2,-99.9,-100.00,North,-999,-999.0,-999.0,104,-99.99,,,-99.99,3.92,,2013-01-06 09:00:00,
2013-01-06 09:05:00,40.5,-99.9,-100.00,North,-999,-999.0,-999.0,104,-99.99,,,-99.99,5.68,,2013-01-06 09:05:00,
2013-01-06 09:10:00,40.8,-99.9,-100.00,North,-999,-999.0,-999.0,104,-99.99,,,-99.99,5.68,,2013-01-06 09:10:00,
2013-01-06 09:15:00,40.8,-99.9,-100.00,North,-999,-999.0,-999.0,104,-99.99,,,-99.99,5.68,,2013-01-06 09:15:00,
2013-01-06 09:20:00,40.5,-99.9,-100.00,North,-999,-999.0,-999.0,102,-99.99,,,-99.99,7.42,,2013-01-06 09:20:00,
2013-01-06 09:25:00,40.5,-99.9,-100.00,North,-999,-999.0,-999.0,103,-99.99,,,-99.99,5.68,,2013-01-06 09:25:00,
2013-01-06 09:30:00,41.0,-99.9,-100.00,North,-999,-999.0,-999.0,103,-99.99,,,-99.99,6.55,,2013-01-06 09:30:00,
2013-01-06 09:35:00,41.3,-99.9,-100.00,North,-999,-999.0,-999.0,102,-99.99,,,-99.99,9.18,,2013-01-06 09:35:00,
2013-01-06 09:40:00,41.9,-99.9,-100.00,North,-999,-999.0,-999.0,103,-99.99,,,-99.99,9.18,,2013-01-06 09:40:00,
2013-01-06 09:45:00,42.2,-99.9,-100.00,North,-999,-999.0,-999.0,103,-99.99,,,-99.99,7.42,,2013-01-06 09:45:00,
2013-01-06 09:50:00,42.6,-99.9,-100.00,North,-999,-999.0,-999.0,103,-99.99,,,-99.99,8.30,,2013-01-06 09:50:00,
2013-01-06 09:55:00,42.9,-99.9,-100.00,North,-999,-999.0,-999.0,103,-99.99,,,-99.99,15.30,,2013-01-06 09:55:00,
2013-01-06 10:00:00,43.2,-99.9,-100.00,North,-999,-999.0,-999.0,101,-99.99,,,-99.99,28.43,,2013-01-06 10:00:00,
2013-01-06 10:05:00,43.6,-99.9,-100.00,North,-999,-999.0,-999.0,102,-99.99,,,-99.99,48.57,,2013-01-06 10:05:00,
2013-01-06 10:10:00,43.8,-99.9,-100.00,North,-999,-999.0,-999.0,101,-99.99,,,-99.99,41.57,,2013-01-06 10:10:00,
2013-01-06 10:15:00,43.9,-99.9,-100.00,North,-999,-999.0,-999.0,100,-99.99,,,-99.99,38.94,,2013-01-06 10:15:00,
2013-01-06 10:20:00,44.0,-99.9,-100.00,North,-999,-999.0,-999.0,99,-99.99,,,-99.99,26.68,,2013-01-06 10:20:00,
2013-01-06 10:25:00,44.3,-99.9,-100.00,North,-999,-999.0,-999.0,98,-99.99,,,-99.99,18.81,,2013-01-06 10:25:00,
2013-01-06 10:30:00,44.5,-99.9,-100.00,North,-999,-999.0,-999.0,98,-99.99,,,-99.99,23.18,,2013-01-06 10:30:00,
2013-01-06 10:35:00,44.6,-99.9,-100.00,North,-999,-999.0,-999.0,99,-99.99,,,-99.99,15.30,,2013-01-06 10:35:00,
2013-01-06 10:40:00,44.7,-99.9,-100.00,North,-999,-999.0,-999.0,99,-99.99,,,-99.99,17.93,,2013-01-06 10:40:00,
2013-01-06 10:45:00,45.0,-99.9,-100.00,North,-999,-999.0,-999.0,99,-99.99,,,-99.99,23.18,,2013-01-06 10:45:00,
2013-01-06 10:50:00,45.4,-99.9,-100.00,North,-999,-999.0,-999.0,99,-99.99,,,-99.99,50.32,,2013-01-06 10:50:00,
2013-01-06 10:55:00,45.5,-99.9,-100.00,North,-999,-999.0,-999.0,98,-99.99,,,-99.99,41.57,,2013-01-06 10:55:00,
2013-01-06 11:00:00,45.6,-99.9,-100.00,North,-999,-999.0,-999.0,97,-99.99,,,-99.99,28.43,,2013-01-06 11:00:00,
2013-01-06 11:05:00,45.7,-99.9,-100.00,North,-999,-999.0,-999.0,96,-99.99,,,-99.99,51.19,,2013-01-06 11:05:00,
2013-01-06 11:10:00,46.0,-99.9,-100.00,North,-999,-999.0,-999.0,96,-99.99,,,-99.99,24.93,,2013-01-06 11:10:00,
2013-01-06 11:15:00,46.1,-99.9,-100.00,North,-999,-999.0,-999.0,95,-99.99,,,-99.99,22.31,,2013-01-06 11:15:00,
2013-01-06 11:20:00,46.2,-99.9,-100.00,North,-999,-999.0,-999.0,93,-99.99,,,-99.99,21.43,,2013-01-06 11:20:00,
2013-01-06 11:25:00,46.2,-99.9,-100.00,North,-999,-999.0,-999.0,95,-99.99,,,-99.99,19.68,,2013-01-06 11:25:00,
2013-01-06 11:30:00,46.3,-99.9,-100.00,North,-999,-999.0,-999.0,96,-99.99,,,-99.99,19.68,,2013-01-06 11:30:00,
2013-01-06 11:35:00,46.4,-99.9,-100.00,North,-999,-999.0,-999.0,95,-99.99,,,-99.99,10.93,,2013-01-06 11:35:00,
2013-01-06 11:40:00,46.3,-99.9,-100.00,North,-999,-999.0,-999.0,95,-99.99,,,-99.99,10.93,,2013-01-06 11:40:00,
2013-01-06 11:45:00,46.4,-99.9,-100.00,North,-999,-999.0,-999.0,96,-99.99,,,-99.99,9.18,,2013-01-06 11:45:00,
2013-01-06 11:50:00,46.5,-99.9,-100.00,North,-999,-999.0,-999.0,96,-99.99,,,-99.99,9.18,,2013-01-06 11:50:00,
2013-01-06 11:55:00,46.5,-99.9,-100.00,North,-999,-999.0,-999.0,96,-99.99,,,-99.99,9.18,,2013-01-06 11:55:00,
2013-01-06 12:00:00,46.5,-99.9,-100.00,North,-999,-999.0,-999.0,97,-99.99,,,-99.99,9.18,,2013-01-06 12:00:00,
2013-01-06 12:05:00,46.7,-99.9,-100.00,North,-999,-999.0,-999.0,97,-99.99,,,-99.99,7.42,,2013-01-06 12:05:00,
2013-01-06 12:10:00,46.7,-99.9,-100.00,North,-999,-999.0,-999.0,97,-99.99,,,-99.99,6.55,,2013-01-06 12:10:00,
2013-01-06 12:15:00,46.8,-99.9,-100.00,North,-999,-999.0,-999.0,96,-99.99,,,-99.99,5.68,,2013-01-06 12:15:00,
2013-01-06 12:20:00,47.0,-99.9,-100.00,North,-999,-999.0,-999.0,97,-99.99,,,-99.99,5.68,,2013-01-06 12:20:00,
2013-01-06 12:25:00,47.1,-99.9,-100.00,North,-999,-999.0,-999.0,97,-99.99,,,-99.99,7.42,,2013-01-06 12:25:00,
2013-01-06 12:30:00,47.2,-99.9,-100.00,North,-999,-999.0,-999.0,97,-99.99,,,-99.99,8.30,,2013-01-06 12:30:00,
2013-01-06 12:35:00,47.3,-99.9,-100.00,North,-999,-999.0,-999.0,97,-99.99,,,-99.99,14.43,,2013-01-06 12:35:00,
2013-01-06 12:40:00,47.4,-99.9,-100.00,North,-999,-999.0,-999.0,96,-99.99,,,-99.99,17.93,,2013-01-06 12:40:00,
2013-01-06 12:45:00,47.6,-99.9,-100.00,North,-999,-999.0,-999.0,96,-99.99,,,-99.99,17.05,,2013-01-06 12:45:00,
2013-01-06 12:50:00,47.8,-99.9,-100.00,North,-999,-999.0,-999.0,95,-99.99,,,-99.99,19.68,,2013-01-06 12:50:00,
2013-01-06 12:56:00,47.9,-99.9,-100.00,North,-999,-999.0,-999.0,95,-99.99,,,-99.99,25.81,,2013-01-06 12:56:00,
2013-01-06 13:01:00,47.9,-99.9,-100.00,North,-999,-999.0,-999.0,94,-99.99,,,-99.99,24.93,,2013-01-06 13:01:00,
2013-01-06 13:06:00,48.0,-99.9,-100.00,North,-999,-999.0,-999.0,94,-99.99,,,-99.99,22.31,,2013-01-06 13:06:00,
2013-01-06 13:11:00,47.9,-99.9,-100.00,North,-999,-999.0,-999.0,93,-99.99,,,-99.99,24.06,,2013-01-06 13:11:00,
2013-01-06 13:16:00,47.9,-99.9,-100.00,North,-999,-999.0,-999.0,93,-99.99,,,-99.99,18.81,,2013-01-06 13:16:00,
2013-01-06 13:21:00,47.9,-99.9,-100.00,North,-999,-999.0,-999.0,93,-99.99,,,-99.99,17.05,,2013-01-06 13:21:00,
2013-01-06 13:26:00,47.9,-99.9,-100.00,North,-999,-999.0,-999.0,93,-99.99,,,-99.99,15.30,,2013-01-06 13:26:00,
2013-01-06 13:31:00,47.9,-99.9,-100.00,North,-999,-999.0,-999.0,92,-99.99,,,-99.99,26.68,,2013-01-06 13:31:00,
2013-01-06 13:36:00,48.1,-99.9,-100.00,North,-999,-999.0,-999.0,92,-99.99,,,-99.99,38.07,,2013-01-06 13:36:00,
2013-01-06 13:41:00,48.2,-99.9,-100.00,North,-999,-999.0,-999.0,92,-99.99,,,-99.99,37.19,,2013-01-06 13:41:00,
2013-01-06 13:46:00,48.2,-99.9,-100.00,North,-999,-999.0,-999.0,92,-99.99,,,-99.99,38.94,,2013-01-06 13:46:00,
2013-01-06 13:51:00,48.2,-99.9,-100.00,North,-999,-999.0,-999.0,91,-99.99,,,-99.99,31.93,,2013-01-06 13:51:00,
2013-01-06 13:57:00,48.2,-99.9,-100.00,North,-999,-999.0,-999.0,91,-99.99,,,-99.99,24.06,,2013-01-06 13:57:00,
2013-01-06 14:02:00,48.2,-99.9,-100.00,North,-999,-999.0,-999.0,91,-99.99,,,-99.99,17.93,,2013-01-06 14:02:00,
2013-01-06 14:07:00,48.2,-99.9,-100.00,North,-999,-999.0,-999.0,90,-99.99,,,-99.99,13.55,,2013-01-06 14:07:00,
2013-01-06 14:12:00,48.3,-99.9,-100.00,North,-999,-999.0,-999.0,91,-99.99,,,-99.99,10.93,,2013-01-06 14:12:00,
2013-01-06 14:17:00,48.4,-99.9,-100.00,North,-999,-999.0,-999.0,90,-99.99,,,-99.99,10.93,,2013-01-06 14:17:00,
2013-01-06 14:22:00,48.4,-99.9,-100.00,North,-999,-999.0,-999.0,90,-99.99,,,-99.99,15.30,,2013-01-06 14:22:00,
2013-01-06 14:27:00,48.5,-99.9,-100.00,North,-999,-999.0,-999.0,90,-99.99,,,-99.99,16.18,,2013-01-06 14:27:00,
2013-01-06 14:32:00,48.4,-99.9,-100.00,North,-999,-999.0,-999.0,89,-99.99,,,-99.99,14.43,,2013-01-06 14:32:00,
2013-01-06 14:37:00,48.4,-99.9,-100.00,North,-999,-999.0,-999.0,89,-99.99,,,-99.99,15.30,,2013-01-06 14:37:00,
2013-01-06 14:42:00,48.4,-99.9,-100.00,North,-999,-999.0,-999.0,89,-99.99,,,-99.99,13.55,,2013-01-06 14:42:00,
2013-01-06 14:47:00,48.3,-99.9,-100.00,North,-999,-999.0,-999.0,88,-99.99,,,-99.99,10.93,,2013-01-06 14:47:00,
2013-01-06 14:52:00,48.4,-99.9,-100.00,North,-999,-999.0,-999.0,88,-99.99,,,-99.99,9.18,,2013-01-06 14:52:00,
2013-01-06 14:57:00,48.3,-99.9,-100.00,North,-999,-999.0,-999.0,88,-99.99,,,-99.99,11.80,,2013-01-06 14:57:00,
2013-01-06 15:03:00,48.3,-99.9,-100.00,North,-999,-999.0,-999.0,88,-99.99,,,-99.99,12.68,,2013-01-06 15:03:00,
2013-01-06 15:08:00,48.2,-99.9,-100.00,North,-999,-999.0,-999.0,89,-99.99,,,-99.99,10.05,,2013-01-06 15:08:00,
2013-01-06 15:13:00,48.1,-99.9,-100.00,North,-999,-999.0,-999.0,89,-99.99,,,-99.99,8.30,,2013-01-06 15:13:00,
2013-01-06 15:18:00,48.1,-99.9,-100.00,North,-999,-999.0,-999.0,89,-99.99,,,-99.99,6.55,,2013-01-06 15:18:00,
2013-01-06 15:23:00,48.0,-99.9,-100.00,North,-999,-999.0,-999.0,88,-99.99,,,-99.99,3.92,,2013-01-06 15:23:00,
2013-01-06 15:28:00,48.0,-99.9,-100.00,North,-999,-999.0,-999.0,88,-99.99,,,-99.99,3.05,,2013-01-06 15:28:00,
2013-01-06 15:33:00,47.9,-99.9,-100.00,North,-999,-999.0,-999.0,88,-99.99,,,-99.99,2.17,,2013-01-06 15:33:00,
2013-01-06 15:39:00,47.9,-99.9,-100.00,North,-999,-999.0,-999.0,88,-99.99,,,-99.99,2.17,,2013-01-06 15:39:00,
2013-01-06 15:43:00,48.0,-99.9,-100.00,North,-999,-999.0,-999.0,88,-99.99,,,-99.99,2.17,,2013-01-06 15:43:00,
2013-01-06 15:48:00,48.0,-99.9,-100.00,North,-999,-999.0,-999.0,87,-99.99,,,-99.99,2.17,,2013-01-06 15:48:00,
2013-01-06 15:53:00,48.0,-99.9,-100.00,North,-999,-999.0,-999.0,87,-99.99,,,-99.99,1.30,,2013-01-06 15:53:00,
2013-01-06 15:58:00,47.9,-99.9,-100.00,North,-999,-999.0,-999.0,88,-99.99,,,-99.99,1.30,,2013-01-06 15:58:00,
2013-01-06 16:03:00,47.8,-99.9,-100.00,North,-999,-999.0,-999.0,88,-99.99,,,-99.99,0.00,,2013-01-06 16:03:00,
2013-01-06 16:08:00,47.6,-99.9,-100.00,North,-999,-999.0,-999.0,88,-99.99,,,-99.99,0.00,,2013-01-06 16:08:00,
2013-01-06 16:13:00,47.8,-99.9,-100.00,North,-999,-999.0,-999.0,88,-99.99,,,-99.99,0.00,,2013-01-06 16:13:00,
2013-01-06 16:18:00,47.8,-99.9,-100.00,North,-999,-999.0,-999.0,88,-99.99,,,-99.99,0.00,,2013-01-06 16:18:00,
2013-01-06 16:23:00,47.5,-99.9,-100.00,North,-999,-999.0,-999.0,89,-99.99,,,-99.99,0.00,,2013-01-06 16:23:00,
2013-01-06 16:28:00,47.5,-99.9,-100.00,North,-999,-999.0,-999.0,88,-99.99,,,-99.99,0.00,,2013-01-06 16:28:00,
2013-01-06 16:33:00,47.4,-99.9,-100.00,North,-999,-999.0,-999.0,88,-99.99,,,-99.99,0.00,,2013-01-06 16:33:00,
2013-01-06 16:38:00,47.4,-99.9,-100.00,North,-999,-999.0,-999.0,88,-99.99,,,-99.99,0.00,,2013-01-06 16:38:00,
2013-01-06 16:43:00,47.4,-99.9,-100.00,North,-999,-999.0,-999.0,89,-99.99,,,-99.99,0.00,,2013-01-06 16:43:00,
2013-01-06 16:48:00,47.4,-99.9,-100.00,North,-999,-999.0,-999.0,88,-99.99,,,-99.99,0.00,,2013-01-06 16:48:00,
2013-01-06 16:53:00,47.5,-99.9,-100.00,North,-999,-999.0,-999.0,89,-99.99,,,-99.99,0.00,,2013-01-06 16:53:00,
2013-01-06 16:58:00,47.4,-99.9,-100.00,North,-999,-999.0,-999.0,89,-99.99,,,-99.99,0.00,,2013-01-06 16:58:00,
2013-01-06 17:03:00,47.4,-99.9,-100.00,North,-999,-999.0,-999.0,89,-99.99,,,-99.99,0.00,,2013-01-06 17:03:00,
2013-01-06 17:08:00,47.3,-99.9,-100.00,North,-999,-999.0,-999.0,89,-99.99,,,-99.99,0.00,,2013-01-06 17:08:00,
2013-01-06 17:13:00,47.1,-99.9,-100.00,North,-999,-999.0,-999.0,89,-99.99,,,-99.99,0.00,,2013-01-06 17:13:00,
2013-01-06 17:18:00,47.0,-99.9,-100.00,North,-999,-999.0,-999.0,90,-99.99,,,-99.99,0.00,,2013-01-06 17:18:00,
2013-01-06 17:23:00,46.8,-99.9,-100.00,North,-999,-999.0,-999.0,90,-99.99,,,-99.99,0.00,,2013-01-06 17:23:00,
2013-01-06 17:28:00,46.7,-99.9,-100.00,North,-999,-999.0,-999.0,91,-99.99,,,-99.99,0.00,,2013-01-06 17:28:00,
2013-01-06 17:33:00,46.7,-99.9,-100.00,North,-999,-999.0,-999.0,91,-99.99,,,-99.99,0.00,,2013-01-06 17:33:00,
2013-01-06 17:38:00,46.6,-99.9,-100.00,North,-999,-999.0,-999.0,91,-99.99,,,-99.99,0.00,,2013-01-06 17:38:00,
2013-01-06 17:43:00,46.4,-99.9,-100.00,North,-999,-999.0,-999.0,91,-99.99,,,-99.99,0.00,,2013-01-06 17:43:00,
2013-01-06 17:49:00,46.4,-99.9,-100.00,North,-999,-999.0,-999.0,92,-99.99,,,-99.99,0.00,,2013-01-06 17:49:00,
2013-01-06 17:53:00,46.5,-99.9,-100.00,North,-999,-999.0,-999.0,92,-99.99,,,-99.99,0.00,,2013-01-06 17:53:00,
2013-01-06 17:59:00,46.5,-99.9,-100.00,North,-999,-999.0,-999.0,93,-99.99,,,-99.99,0.00,,2013-01-06 17:59:00,
2013-01-06 18:03:00,46.4,-99.9,-100.00,North,-999,-999.0,-999.0,93,-99.99,,,-99.99,0.00,,2013-01-06 18:03:00,
2013-01-06 18:08:00,46.4,-99.9,-100.00,North,-999,-999.0,-999.0,92,-99.99,,,-99.99,0.00,,2013-01-06 18:08:00,
2013-01-06 18:13:00,46.4,-99.9,-100.00,North,-999,-999.0,-999.0,94,-99.99,,,-99.99,0.00,,2013-01-06 18:13:00,
2013-01-06 18:18:00,46.4,-99.9,-100.00,North,-999,-999.0,-999.0,94,-99.99,,,-99.99,0.00,,2013-01-06 18:18:00,
2013-01-06 18:23:00,46.4,-99.9,-100.00,North,-999,-999.0,-999.0,94,-99.99,,,-99.99,0.00,,2013-01-06 18:23:00,
2013-01-06 18:29:00,46.4,-99.9,-100.00,North,-999,-999.0,-999.0,95,-99.99,,,-99.99,0.00,,2013-01-06 18:29:00,
2013-01-06 18:34:00,46.4,-99.9,-100.00,North,-999,-999.0,-999.0,95,-99.99,,,-99.99,0.00,,2013-01-06 18:34:00,
2013-01-06 18:38:00,46.5,-99.9,-100.00,North,-999,-999.0,-999.0,95,-99.99,,,-99.99,0.00,,2013-01-06 18:38:00,
2013-01-06 18:44:00,46.5,-99.9,-100.00,North,-999,-999.0,-999.0,94,-99.99,,,-99.99,0.00,,2013-01-06 18:44:00,
2013-01-06 18:48:00,46.6,-99.9,-100.00,North,-999,-999.0,-999.0,95,-99.99,,,-99.99,0.00,,2013-01-06 18:48:00,
2013-01-06 18:53:00,46.7,-99.9,-100.00,North,-999,-999.0,-999.0,95,-99.99,,,-99.99,0.00,,2013-01-06 18:53:00,
2013-01-06 18:58:00,46.7,-99.9,-100.00,North,-999,-999.0,-999.0,95,-99.99,,,-99.99,0.00,,2013-01-06 18:58:00,
2013-01-06 19:03:00,46.7,-99.9,-100.00,North,-999,-999.0,-999.0,95,-99.99,,,-99.99,0.00,,2013-01-06 19:03:00,
2013-01-06 19:08:00,46.7,-99.9,-100.00,North,-999,-999.0,-999.0,95,-99.99,,,-99.99,0.00,,2013-01-06 19:08:00,
2013-01-06 19:13:00,46.8,-99.9,-100.00,North,-999,-999.0,-999.0,95,-99.99,,,-99.99,0.00,,2013-01-06 19:13:00,
2013-01-06 19:19:00,46.8,-99.9,-100.00,North,-999,-999.0,-999.0,95,-99.99,,,-99.99,0.00,,2013-01-06 19:19:00,
2013-01-06 19:23:00,46.7,-99.9,-100.00,North,-999,-999.0,-999.0,95,-99.99,,,-99.99,0.00,,2013-01-06 19:23:00,
2013-01-06 19:28:00,46.7,-99.9,-100.00,North,-999,-999.0,-999.0,95,-99.99,,,-99.99,0.00,,2013-01-06 19:28:00,
2013-01-06 19:34:00,46.7,-99.9,-100.00,North,-999,-999.0,-999.0,94,-99.99,,,-99.99,0.00,,2013-01-06 19:34:00,
2013-01-06 19:38:00,46.7,-99.9,-100.00,North,-999,-999.0,-999.0,95,-99.99,,,-99.99,0.00,,2013-01-06 19:38:00,
2013-01-06 19:44:00,46.7,-99.9,-100.00,North,-999,-999.0,-999.0,95,-99.99,,,-99.99,0.00,,2013-01-06 19:44:00,
2013-01-06 19:49:00,46.7,-99.9,-100.00,North,-999,-999.0,-999.0,95,-99.99,,,-99.99,0.00,,2013-01-06 19:49:00,
2013-01-06 19:54:00,46.8,-99.9,-100.00,North,-999,-999.0,-999.0,95,-99.99,,,-99.99,0.00,,2013-01-06 19:54:00,
2013-01-06 20:00:00,46.8,-99.9,-100.00,North,-999,-999.0,-999.0,95,-99.99,,,-99.99,0.00,,2013-01-06 20:00:00,
2013-01-06 20:05:00,46.8,-99.9,-100.00,North,-999,-999.0,-999.0,95,-99.99,,,-99.99,0.00,,2013-01-06 20:05:00,
2013-01-06 20:11:00,46.8,-99.9,-100.00,North,-999,-999.0,-999.0,95,-99.99,,,-99.99,0.00,,2013-01-06 20:11:00,
2013-01-06 20:13:00,46.8,-99.9,-100.00,North,-999,-999.0,-999.0,95,-99.99,,,-99.99,0.00,,2013-01-06 20:13:00,
2013-01-06 20:16:00,46.7,-99.9,-100.00,North,-999,-999.0,-999.0,95,-99.99,,,-99.99,0.00,,2013-01-06 20:16:00,
2013-01-06 20:21:00,46.7,-99.9,-100.00,North,-999,-999.0,-999.0,95,-99.99,,,-99.99,1.30,,2013-01-06 20:21:00,
2013-01-06 20:26:00,46.7,-99.9,-100.00,North,-999,-999.0,-999.0,95,-99.99,,,-99.99,0.00,,2013-01-06 20:26:00,
2013-01-06 20:30:00,46.7,-99.9,-100.00,North,-999,-999.0,-999.0,95,-99.99,,,-99.99,0.00,,2013-01-06 20:30:00,
2013-01-06 20:36:00,46.6,-99.9,-100.00,North,-999,-999.0,-999.0,95,-99.99,,,-99.99,0.00,,2013-01-06 20:36:00,
2013-01-06 20:41:00,46.7,-99.9,-100.00,North,-999,-999.0,-999.0,95,-99.99,,,-99.99,0.00,,2013-01-06 20:41:00,
2013-01-06 20:47:00,46.6,-99.9,-100.00,North,-999,-999.0,-999.0,95,-99.99,,,-99.99,0.00,,2013-01-06 20:47:00,
2013-01-06 20:52:00,46.6,-99.9,-100.00,North,-999,-999.0,-999.0,95,-99.99,,,-99.99,0.00,,2013-01-06 20:52:00,
2013-01-06 20:57:00,46.6,-99.9,-100.00,North,-999,-999.0,-999.0,95,-99.99,,,-99.99,0.00,,2013-01-06 20:57:00,
2013-01-06 21:02:00,46.6,-99.9,-100.00,North,-999,-999.0,-999.0,95,-99.99,,,-99.99,0.00,,2013-01-06 21:02:00,
2013-01-06 21:07:00,46.6,-99.9,-100.00,North,-999,-999.0,-999.0,96,-99.99,,,-99.99,0.00,,2013-01-06 21:07:00,
2013-01-06 21:11:00,46.6,-99.9,-100.00,North,-999,-999.0,-999.0,94,-99.99,,,-99.99,0.00,,2013-01-06 21:11:00,
2013-01-06 21:17:00,46.6,-99.9,-100.00,North,-999,-999.0,-999.0,95,-99.99,,,-99.99,0.00,,2013-01-06 21:17:00,
2013-01-06 21:21:00,46.6,-99.9,-100.00,North,-999,-999.0,-999.0,96,-99.99,,,-99.99,0.00,,2013-01-06 21:21:00,
2013-01-06 21:27:00,46.5,-99.9,-100.00,North,-999,-999.0,-999.0,95,-99.99,,,-99.99,0.00,,2013-01-06 21:27:00,
2013-01-06 21:32:00,46.5,-99.9,-100.00,North,-999,-999.0,-999.0,95,-99.99,,,-99.99,0.00,,2013-01-06 21:32:00,
2013-01-06 21:37:00,46.5,-99.9,-100.00,North,-999,-999.0,-999.0,95,-99.99,,,-99.99,0.00,,2013-01-06 21:37:00,
2013-01-06 21:42:00,46.6,-99.9,-100.00,North,-999,-999.0,-999.0,96,-99.99,,,-99.99,0.00,,2013-01-06 21:42:00,
2013-01-06 21:47:00,46.6,-99.9,-100.00,North,-999,-999.0,-999.0,96,-99.99,,,-99.99,0.00,,2013-01-06 21:47:00,
2013-01-06 21:51:00,46.5,-99.9,-100.00,North,-999,-999.0,-999.0,96,-99.99,,,-99.99,0.00,,2013-01-06 21:51:00,
2013-01-06 21:56:00,46.5,-99.9,-100.00,North,-999,-999.0,-999.0,96,-99.99,,,-99.99,0.00,,2013-01-06 21:56:00,
2013-01-06 22:02:00,46.6,-99.9,-100.00,North,-999,-999.0,-999.0,96,-99.99,,,-99.99,0.00,,2013-01-06 22:02:00,
2013-01-06 22:07:00,46.6,-99.9,-100.00,North,-999,-999.0,-999.0,96,-99.99,,,-99.99,0.00,,2013-01-06 22:07:00,
2013-01-06 22:11:00,46.6,-99.9,-100.00,North,-999,-999.0,-999.0,96,-99.99,,,-99.99,0.00,,2013-01-06 22:11:00,
2013-01-06 22:17:00,46.6,-99.9,-100.00,North,-999,-999.0,-999.0,96,-99.99,,,-99.99,0.00,,2013-01-06 22:17:00,
2013-01-06 22:22:00,46.6,-99.9,-100.00,North,-999,-999.0,-999.0,96,-99.99,,,-99.99,0.00,,2013-01-06 22:22:00,
2013-01-06 22:27:00,46.5,-99.9,-100.00,North,-999,-999.0,-999.0,96,-99.99,,,-99.99,0.00,,2013-01-06 22:27:00,
2013-01-06 22:32:00,46.5,-99.9,-100.00,North,-999,-999.0,-999.0,97,-99.99,,,-99.99,0.00,,2013-01-06 22:32:00,
2013-01-06 22:37:00,46.5,-99.9,-100.00,North,-999,-999.0,-999.0,97,-99.99,,,-99.99,0.00,,2013-01-06 22:37:00,
2013-01-06 22:42:00,46.5,-99.9,-100.00,North,-999,-999.0,-999.0,97,-99.99,,,-99.99,0.00,,2013-01-06 22:42:00,
2013-01-06 22:47:00,46.5,-99.9,-100.00,North,-999,-999.0,-999.0,97,-99.99,,,-99.99,0.00,,2013-01-06 22:47:00,
2013-01-06 22:52:00,46.5,-99.9,-100.00,North,-999,-999.0,-999.0,97,-99.99,,,-99.99,0.00,,2013-01-06 22:52:00,
2013-01-06 22:57:00,46.6,-99.9,-100.00,North,-999,-999.0,-999.0,97,-99.99,,,-99.99,0.00,,2013-01-06 22:57:00,
2013-01-06 23:02:00,46.5,-99.9,-100.00,North,-999,-999.0,-999.0,97,-99.99,,,-99.99,0.00,,2013-01-06 23:02:00,
2013-01-06 23:07:00,46.5,-99.9,-100.00,North,-999,-999.0,-999.0,98,-99.99,,,-99.99,0.00,,2013-01-06 23:07:00,
2013-01-06 23:12:00,46.5,-99.9,-100.00,North,-999,-999.0,-999.0,98,-99.99,,,-99.99,0.00,,2013-01-06 23:12:00,
2013-01-06 23:17:00,46.4,-99.9,-100.00,North,-999,-999.0,-999.0,98,-99.99,,,-99.99,0.00,,2013-01-06 23:17:00,
2013-01-06 23:22:00,46.4,-99.9,-100.00,North,-999,-999.0,-999.0,98,-99.99,,,-99.99,0.00,,2013-01-06 23:22:00,
2013-01-06 23:27:00,46.3,-99.9,-100.00,North,-999,-999.0,-999.0,98,-99.99,,,-99.99,0.00,,2013-01-06 23:27:00,
2013-01-06 23:32:00,46.3,-99.9,-100.00,North,-999,-999.0,-999.0,99,-99.99,,,-99.99,0.00,,2013-01-06 23:32:00,
2013-01-06 23:37:00,46.3,-99.9,-100.00,North,-999,-999.0,-999.0,99,-99.99,,,-99.99,0.00,,2013-01-06 23:37:00,
2013-01-06 23:42:00,46.3,-99.9,-100.00,North,-999,-999.0,-999.0,99,-99.99,,,-99.99,0.00,,2013-01-06 23:42:00,
2013-01-06 23:47:00,46.3,-99.9,-100.00,North,-999,-999.0,-999.0,99,-99.99,,,-99.99,0.00,,2013-01-06 23:47:00,
2013-01-06 23:52:00,46.3,-99.9,-100.00,North,-999,-999.0,-999.0,99,-99.99,,,-99.99,0.00,,2013-01-06 23:52:00,
2013-01-06 23:57:00,46.3,-99.9,-100.00,North,-999,-999.0,-999.0,99,-99.99,,,-99.99,0.00,,2013-01-06 23:57:00,